This demonstration page uses our WeatherBlox Daily Observations layout. Learn more.

Left ArrowRight Arrow

Hourly Observations for September 21, 2015

Temp ( °F °C ) Dew Point ( °F °C ) Humidity (%) Winds ( mph kmh ) Pressure ( in mb ) Visibility ( mi km ) Precip ( " mm )
12:52 am 00:52 Clear 62 16.7 55 12.8 78 78 SSE 9 15 29.98 1015 10 16 0.00 0.00
1:52 am 01:52 Clear 62 16.7 55 12.8 78 78 SSE 10 17 29.97 1015 10 16 0.00 0.00
2:52 am 02:52 Clear 62 16.7 55 12.8 78 78 SSE 13 20 29.96 1015 10 16 0.00 0.00
3:52 am 03:52 Clear 62 16.7 56 13.3 80 80 SSE 12 19 29.95 1014 10 16 0.00 0.00
4:52 am 04:52 Clear 61 16.1 57 13.9 87 87 SSE 10 17 29.95 1014 10 16 0.00 0.00
5:52 am 05:52 Clear 60 15.6 58 14.4 93 93 SSE 10 17 29.96 1015 10 16 0.00 0.00
6:52 am 06:52 Mostly Clear 60 15.6 58 14.4 93 93 SSE 10 17 29.97 1015 10 16 0.00 0.00
7:06 am 07:06 Mostly Cloudy 60 15.6 58 14.4 93 93 SSE 12 19 30.00 1016 10 16 0.00 0.00
7:52 am 07:52 Cloudy 61 16.1 59 15 93 93 SSE 10 17 29.99 1016 7 11 0.00 0.00
8:52 am 08:52 Cloudy with Mist and Fog 63 17.2 61 16.1 93 93 S 13 20 29.99 1016 3 5 0.00 0.00
9:20 am 09:20 Cloudy with Mist and Fog 63 17 61 16 94 94 S 13 20 30.00 1016 2 3 0.00 0.00
9:33 am 09:33 Cloudy with Mist and Fog 63 17.2 61 16.1 93 93 SSE 14 22 30.00 1016 2 2 0.00 0.00
9:52 am 09:52 Cloudy with Mist and Fog 63 17.2 61 16.1 93 93 S 12 19 30.00 1016 1 2 0.00 0.00
10:24 am 10:24 Cloudy with Mist and Fog 64 18 63 17 94 94 S 13 20 29.97 1015 3 4 0.00 0.00
10:52 am 10:52 Cloudy with Mist and Fog 65 18.3 63 17.2 93 93 SSE 12 19 30.00 1016 3 4 0.00 0.00
11:52 am 11:52 Cloudy with Mist and Fog 65 18.3 63 17.2 93 93 S 13 20 30.00 1016 3 4 0.00 0.00
12:52 pm 12:52 Cloudy with Mist and Fog 67 19.4 64 17.8 91 91 SSE 13 20 29.98 1015 3 4 0.00 0.00
1:01 pm 13:01 Cloudy with Mist and Fog 67 19.4 64 17.8 91 91 S 13 20 29.97 1015 3 5 0.00 0.00
1:52 pm 13:52 Cloudy with Haze 69 20.6 64 17.8 84 84 SSE 15 24 29.96 1015 5 8 0.00 0.00
2:07 pm 14:07 Cloudy with Haze 70 21.1 65 18.3 84 84 SSE 16 26 29.94 1014 6 10 0.00 0.00
2:37 pm 14:37 Mostly Cloudy with Haze 73 22.8 65 18.3 76 76 SSE 16 26 29.94 1014 6 10 0.00 0.00
2:52 pm 14:52 Mostly Cloudy 73 22.8 64 17.8 74 74 SSE 17 28 29.93 1014 7 11 0.00 0.00
3:52 pm 15:52 Mostly Cloudy 74 23.3 65 18.3 74 74 SSE 17 28 29.92 1013 7 11 0.00 0.00
4:50 pm 16:50 Mostly Cloudy 75 24 64 18 69 69 SSE 16 26 29.91 1013 10 16 0.00 0.00
4:52 pm 16:52 Mostly Cloudy 76 24.4 65 18.3 69 69 SSE 16 26 29.91 1013 10 16 0.00 0.00
5:52 pm 17:52 Mostly Cloudy 75 23.9 65 18.3 71 71 SSE 15 24 29.91 1013 10 16 0.00 0.00
6:16 pm 18:16 Mostly Cloudy 73 23 64 18 74 74 SSE 16 26 29.91 1013 10 16 0.00 0.00
6:26 pm 18:26 Partly Cloudy 73 23 64 18 74 74 SSE 17 28 29.91 1013 10 16 0.00 0.00
6:52 pm 18:52 Mostly Sunny 73 22.8 65 18.3 76 76 SSE 18 30 29.91 1013 10 16 0.00 0.00
7:52 pm 19:52 Mostly Clear 70 21.1 65 18.3 84 84 SSE 16 26 29.91 1013 10 16 0.00 0.00
8:52 pm 20:52 Clear 69 20.6 65 18.3 87 87 SSE 10 17 29.92 1013 10 16 0.00 0.00
9:52 pm 21:52 Clear 68 20 65 18.3 90 90 SSE 10 17 29.94 1014 10 16 0.00 0.00
10:52 pm 22:52 Clear 67 19.4 65 18.3 93 93 S 9 15 29.96 1014 10 16 0.00 0.00
11:52 pm 23:52 Clear 67 19.4 64 17.8 91 91 S 8 13 29.96 1015 10 16 0.00 0.00

Powered by AerisWeather